Powrót do katalogu

FENGYUN 1C DEB

AktywnySSO
NORAD 32447·DEBRIS·🇨🇳 China

Wystrzelony May 10, 1999 z Taiyuan Satellite Launch Center

Loading…

Następne Przeloty (najbliższe 24 godziny)

TLE

Starzejące sięSource: Space-Track

Epoka: Sep 9, 2026, 06:17 UTC

1 32447U 99025DBK 26252.26217200  .00000263  00000-0  21693-3 0  9997
2 32447  98.9211 265.1081 0079556  17.2200 343.1633 13.96143850716534

Śledź FENGYUN 1C DEB w czasie rzeczywistym z AllMySat

Download on the App Store